Tracking 35237 objects as of 6-Sep-2026
HD Live streaming from Space Station
objects crossing your sky now

STARLINK-3881

Track STARLINK-3881 now!
10-day predictions
STARLINK-3881 is classified as:


NORAD ID: 52472
Int'l Code: 2022-049X
Launch date: May 6, 2022
Source: United States (US)
Launch site: AIR FORCE EASTERN TEST RANGE (AFETR)
Your satellite tracking list
Your tracking list is empty




NASA's NSSDC Master Catalog

Two Line Element Set (TLE):
1 52472U 22049X   26249.22339039  .00000059  00000-0  13129-4 0  9995
2 52472  53.1600 320.5358 0000957  72.4380 287.6727 15.33553479239613
Source of the keplerian elements: AFSPC